Location: DARK SKY Beskydy - Park tmavé oblohy, www.darkskybeskydy.cz
(49.4926°N, 18.5016°E)
Time: 12:18:54
(UTC+01:00)

Transit 4A - All Passes

Search period start: 22 February 2024 00:00
Search period end: 03 March 2024 00:00
Orbit: 869 x 974 km, 66.8° (Epoch: 21 February)

Date Brightness Start Highest point End Pass type
(mag) Time Alt. Az. Time Alt. Az. Time Alt. Az.
22 Feb - 00:57:50 10° SSE 01:03:01 29° ESE 01:08:07 10° NE visible
22 Feb - 02:42:50 10° SW 02:48:59 65° NW 02:55:00 10° NNE visible
22 Feb - 04:31:47 10° WNW 04:36:28 22° NNW 04:41:05 10° NNE visible
22 Feb - 06:21:54 10° NNW 06:25:10 15° N 06:28:23 10° NE daylight
22 Feb - 08:09:09 10° NNW 08:13:48 23° NNE 08:18:23 10° E daylight
22 Feb - 09:55:17 10° NNW 10:01:12 72° NE 10:06:59 10° SE daylight
22 Feb - 11:42:25 10° WNW 11:46:58 24° WSW 11:51:28 10° SSW daylight
23 Feb - 01:06:12 10° S 01:11:55 40° ESE 01:17:31 10° NE visible
23 Feb - 02:52:13 10° WSW 02:58:11 49° NW 03:04:03 10° NNE visible
23 Feb - 04:41:45 10° WNW 04:45:59 19° NNW 04:50:11 10° NNE visible
23 Feb - 06:31:27 10° NNW 06:34:48 15° N 06:38:07 10° NE daylight
23 Feb - 08:18:13 10° NNW 08:23:15 28° NNE 08:28:13 10° E daylight
23 Feb - 10:04:22 10° NW 10:10:18 85° SW 10:16:06 10° SSE daylight
23 Feb - 11:52:15 10° WNW 11:55:44 16° WSW 11:59:12 10° SW daylight
23 Feb - 23:35:18 10° ESE 23:35:45 10° E 23:36:12 10° E night (unlit)
24 Feb - 01:14:50 10° SSW 01:20:52 56° ESE 01:26:46 10° NE visible
24 Feb - 03:01:46 10° WSW 03:07:29 38° NW 03:13:04 10° NNE visible
24 Feb - 04:51:44 10° NW 04:55:33 17° NNW 04:59:20 10° NNE visible
24 Feb - 06:40:49 10° NNW 06:44:25 16° NNE 06:47:58 10° NE daylight
24 Feb - 08:27:15 10° NNW 08:32:38 34° NE 08:37:54 10° ESE daylight
24 Feb - 10:13:32 10° NW 10:19:20 61° WSW 10:25:01 10° SSE daylight
24 Feb - 12:03:16 10° W 12:04:26 11° W 12:05:35 10° WSW daylight
24 Feb - 23:40:59 10° SE 23:44:27 16° ESE 23:47:54 10° ENE visible
25 Feb - 01:23:42 10° SSW 01:29:53 77° ESE 01:35:56 10° NE visible
25 Feb - 03:11:27 10° W 03:16:49 31° NW 03:22:05 10° NNE visible
25 Feb - 05:01:40 10° NW 05:05:10 15° N 05:08:36 10° NNE visible
25 Feb - 06:50:03 10° NNW 06:54:00 18° NNE 06:57:55 10° ENE daylight
25 Feb - 08:36:16 10° NNW 08:41:56 44° NE 08:47:28 10° ESE daylight
25 Feb - 10:22:46 10° NW 10:28:17 43° WSW 10:33:43 10° S daylight
25 Feb - 23:48:34 10° SSE 23:53:13 23° ESE 23:57:48 10° ENE visible
26 Feb - 01:32:46 10° SW 01:38:58 79° NW 01:45:02 10° NE visible
26 Feb - 03:21:15 10° W 03:26:14 25° NNW 03:31:07 10° NNE visible
26 Feb - 05:11:31 10° NW 05:14:48 15° N 05:18:02 10° NNE visible
26 Feb - 06:59:11 10° NNW 07:03:32 20° NNE 07:07:50 10° ENE daylight
26 Feb - 08:45:19 10° NNW 08:51:09 58° NE 08:56:52 10° SE daylight
26 Feb - 10:32:07 10° NW 10:37:10 30° WSW 10:42:08 10° S daylight
26 Feb - 23:56:42 10° S 00:02:04 32° ESE 00:07:20 10° NE visible
27 Feb - 01:42:02 10° SW 01:48:07 60° NW 01:54:05 10° NNE visible
27 Feb - 03:31:10 10° WNW 03:35:42 21° NNW 03:40:09 10° NNE visible
27 Feb - 05:21:11 10° NNW 05:24:26 15° N 05:27:39 10° NE visible
27 Feb - 07:08:15 10° NNW 07:13:01 24° NNE 07:17:43 10° E daylight
27 Feb - 08:54:23 10° NW 09:00:18 79° NE 09:06:07 10° SE daylight
27 Feb - 10:41:42 10° WNW 10:45:58 21° WSW 10:50:12 10° SSW daylight
28 Feb - 00:05:09 10° S 00:10:58 45° ESE 00:16:40 10° NE visible
28 Feb - 01:51:28 10° WSW 01:57:21 45° NW 02:03:07 10° NNE visible
28 Feb - 03:41:09 10° WNW 03:45:14 18° NNW 03:49:16 10° NNE visible
28 Feb - 05:30:40 10° NNW 05:34:04 15° N 05:37:25 10° NE visible
28 Feb - 07:17:18 10° NNW 07:22:26 30° NE 07:27:30 10° E daylight
28 Feb - 09:03:30 10° NW 09:09:23 77° WSW 09:15:10 10° SSE daylight
28 Feb - 10:51:43 10° WNW 10:54:43 14° WSW 10:57:42 10° SW daylight
28 Feb - 22:32:44 10° ESE 22:34:44 12° E 22:36:43 10° E night (unlit)
29 Feb - 00:13:51 10° SSW 00:19:56 62° ESE 00:25:53 10° NE visible
29 Feb - 02:01:03 10° WSW 02:06:39 36° NW 02:12:08 10° NNE visible
29 Feb - 03:51:08 10° NW 03:54:49 16° NNW 03:58:28 10° NNE visible
29 Feb - 05:40:00 10° NNW 05:43:40 16° NNE 05:47:19 10° NE visible
29 Feb - 07:26:19 10° NNW 07:31:47 37° NE 07:37:09 10° ESE daylight
29 Feb - 09:12:40 10° NW 09:18:23 55° WSW 09:24:00 10° SSE daylight
29 Feb - 22:39:33 10° SE 22:43:27 18° ESE 22:47:18 10° ENE night (unlit)
01 Mar - 00:22:47 10° SSW 00:28:58 85° SE 00:35:01 10° NE visible
01 Mar - 02:10:47 10° W 02:16:00 29° NW 02:21:09 10° NNE visible
01 Mar - 04:01:03 10° NW 04:04:26 15° N 04:07:46 10° NNE visible
01 Mar - 05:49:10 10° NNW 05:53:14 19° NNE 05:57:15 10° ENE visible
01 Mar - 07:35:22 10° NNW 07:41:04 48° NE 07:46:40 10° ESE daylight
01 Mar - 09:21:56 10° NW 09:27:18 39° WSW 09:32:38 10° S daylight
01 Mar - 22:47:21 10° SSE 22:52:14 25° ESE 22:57:03 10° NE night (unlit)
02 Mar - 00:31:56 10° SW 00:38:04 73° NW 00:44:06 10° NNE visible
02 Mar - 02:20:37 10° W 02:25:26 24° NNW 02:30:11 10° NNE visible
02 Mar - 04:10:50 10° NW 04:14:03 15° N 04:17:15 10° NNE visible
02 Mar - 05:58:17 10° NNW 06:02:46 21° NNE 06:07:10 10° ENE daylight
02 Mar - 07:44:24 10° NNW 07:50:16 64° NE 07:56:01 10° SE daylight
02 Mar - 09:31:20 10° NW 09:36:10 27° WSW 09:40:57 10° SSW daylight
02 Mar - 22:55:35 10° S 23:01:06 35° ESE 23:06:30 10° NE visible
